This demonstration page uses our WeatherBlox Daily Observations layout. Learn more.

Left ArrowRight Arrow

Hourly Observations for May 18, 2018

Temp ( °F °C ) Dew Point ( °F °C ) Humidity (%) Winds ( mph kmh ) Pressure ( in mb ) Visibility ( mi km ) Precip ( " mm )
12:17 am 00:17 Cloudy 49 9.4 45 7.2 86 86 ENE 20 31 30.06 1018 10 16 N/A
12:53 am 00:53 Cloudy 48 8.9 45 7.2 89 89 NE 18 30 30.05 1018 10 16 N/A
1:24 am 01:24 Cloudy 48 9 45 7 87 87 NE 17 28 30.06 1018 10 16 N/A
1:35 am 01:35 Cloudy 48 8.9 44 6.7 86 86 NE 14 22 30.06 1018 10 16 N/A
1:53 am 01:53 Cloudy 48 8.9 44 6.7 86 86 NE 15 24 30.07 1018 10 16 N/A
2:53 am 02:53 Cloudy 48 8.9 44 6.7 86 86 NE 15 24 30.07 1018 10 16 N/A
3:23 am 03:23 Cloudy with Mist and Fog 46 7.8 45 7.2 96 96 NE 14 22 30.09 1019 5 8 N/A
3:39 am 03:39 Cloudy with Mist and Fog 46 7.8 45 7.2 96 96 NE 15 24 30.09 1019 5 8 N/A
3:53 am 03:53 Cloudy with Mist and Fog 46 7.8 45 7.2 96 96 NE 13 20 30.09 1019 5 8 N/A
4:38 am 04:38 Cloudy with Mist and Fog 46 8 45 7 93 93 NE 10 17 30.12 1020 6 10 N/A
4:48 am 04:48 Cloudy with Light Rain 46 8 45 7 93 93 NE 16 26 30.12 1020 6 10 N/A
4:53 am 04:53 Cloudy with Light Rain 46 7.8 45 7.2 96 96 NE 13 20 30.11 1020 5 8 N/A
5:03 am 05:03 Cloudy with Light Rain 46 7.8 45 7.2 96 96 NE 15 24 30.12 1020 4 6 0.01 0.25
5:20 am 05:20 Cloudy with Mist and Fog 46 8 45 7 93 93 NE 14 22 30.12 1020 5 8 N/A
5:34 am 05:34 Cloudy with Mist and Fog 46 8 45 7 93 93 NE 15 24 30.12 1020 5 8 N/A
5:53 am 05:53 Cloudy with Mist and Fog 45 7.2 43 6.1 93 93 NE 17 28 30.13 1020 6 10 0.01 0.25
6:11 am 06:11 Cloudy with Mist and Fog 45 7.2 43 6.1 93 93 NE 17 28 30.15 1021 5 8 N/A
6:35 am 06:35 Cloudy 45 7.2 42 5.6 90 90 ENE 16 26 30.18 1022 10 16 N/A
6:42 am 06:42 Cloudy 45 7 43 6 93 93 ENE 14 22 30.18 1022 10 16 N/A
6:53 am 06:53 Cloudy 44 6.7 42 5.6 93 93 NE 17 28 30.15 1021 10 16 N/A
7:08 am 07:08 Cloudy with Light Rain 45 7 43 6 93 93 NE 21 33 30.18 1022 10 16 N/A
7:53 am 07:53 Cloudy 44 6.7 42 5.6 93 93 NE 20 31 30.16 1022 10 16 N/A
8:13 am 08:13 Cloudy 44 6.7 42 5.6 93 93 NE 17 28 30.18 1022 9 14 N/A
8:24 am 08:24 Cloudy 45 7 43 6 93 93 NE 16 26 30.18 1022 10 16 N/A
8:53 am 08:53 Cloudy with Light Rain 44 6.7 42 5.6 93 93 NE 15 24 30.18 1022 7 11 N/A
9:01 am 09:01 Cloudy with Light Rain 44 6.7 42 5.6 93 93 NE 15 24 30.21 1023 9 14 N/A
9:08 am 09:08 Cloudy 45 7 43 6 93 93 NE 16 26 30.21 1023 10 16 N/A
9:20 am 09:20 Cloudy with Light Rain 45 7 43 6 93 93 NE 16 26 30.21 1023 9 14 N/A
9:49 am 09:49 Cloudy with Light Rain 45 7 43 6 93 93 ENE 17 28 30.21 1023 4 6 0.03 0.76
9:53 am 09:53 Cloudy with Rain 43 6.1 42 5.6 97 97 ENE 16 26 30.21 1023 3 5 0.04 1.02
9:58 am 09:58 Cloudy with Light Rain 43 6 43 6 100 100 ENE 18 30 30.21 1023 3 4 N/A
10:07 am 10:07 Cloudy with Light Rain 44 6.7 42 5.6 93 93 ENE 14 22 30.21 1023 5 8 0.02 0.51
10:53 am 10:53 Cloudy 44 6.7 42 5.6 93 93 ENE 18 30 30.23 1024 10 16 0.02 0.51
11:17 am 11:17 Cloudy 44 6.7 42 5.6 93 93 ENE 21 33 30.24 1024 10 16 N/A
11:41 am 11:41 Cloudy 45 7.2 42 5.6 90 90 ENE 18 30 30.24 1024 10 16 N/A
11:53 am 11:53 Cloudy 45 7.2 42 5.6 90 90 ENE 17 28 30.25 1024 10 16 N/A
12:39 pm 12:39 Cloudy with Light Rain 45 7.2 42 5.6 90 90 ENE 18 30 30.27 1025 10 16 N/A
12:53 pm 12:53 Cloudy with Light Rain 46 7.8 43 6.1 89 89 ENE 16 26 30.27 1025 10 16 N/A
1:53 pm 13:53 Cloudy with Light Rain 47 8.3 43 6.1 86 86 ENE 12 19 30.28 1025 10 16 0.01 0.25
2:45 pm 14:45 Cloudy with Light Rain 47 8.3 43 6.1 86 86 E 12 19 30.30 1026 10 16 N/A
2:53 pm 14:53 Cloudy with Light Rain 47 8.3 43 6.1 86 86 E 12 19 30.28 1026 10 16 N/A
3:53 pm 15:53 Cloudy with Light Rain 48 8.9 44 6.7 86 86 E 8 13 30.29 1026 10 16 0.02 0.51
4:53 pm 16:53 Cloudy 49 9.4 43 6.1 80 80 ESE 7 11 30.28 1025 10 16 N/A
5:53 pm 17:53 Cloudy 50 10 42 5.6 74 74 ESE 3 6 30.27 1025 10 16 N/A
6:53 pm 18:53 Mostly Cloudy 51 10.6 43 6.1 74 74 N N/A 30.27 1025 10 16 N/A
7:53 pm 19:53 Mostly Sunny 50 10 44 6.7 80 80 WNW 5 7 30.28 1025 10 16 N/A
8:53 pm 20:53 Sunny 48 8.9 44 6.7 86 86 WNW 5 7 30.29 1026 10 16 N/A
9:53 pm 21:53 Clear 45 7.2 43 6.1 93 93 WSW 5 7 30.32 1027 10 16 N/A
10:53 pm 22:53 Clear 43 6.1 42 5.6 97 97 SSW 7 11 30.33 1027 10 16 N/A
11:53 pm 23:53 Clear 43 6.1 42 5.6 97 97 S 7 11 30.34 1027 10 16 N/A

Powered by AerisWeather